470  
ASUS42 KCAE 211610  
RWRCAE  
REGIONAL WEATHER ROUNDUP  
NATIONAL WEATHER SERVICE COLUMBIA SC  
1200 PM EDT SAT MAY 21 2022  
 
NOTE: "FAIR" INDICATES FEW OR NO CLOUDS BELOW 12,000 FEET WITH NO  
SIGNIFICANT WEATHER AND/OR S TO VISIBILITY
.  
 
NOT ALL STATIONS ARE QUALITY CONTROLLED BY THE NATIONAL  
WEATHER SERVICE. USE DATA WITH CAUTION...ESPECIALLY  
DEWPOINT OBSERVATIONS.  
 
SCZ001>059-115-116-135>137-GAZ040-063>065-077-211700-   
..UPSTATE SOUTH CAROLINA
 
 
 
CITY SKY/WX TMP DP RH WIND PRES REMARKS
 
ANDERSON SUNNY 84 67 56 W7 30.17R  
LIBERTY MOSUNNY 84 68 58 SW6 30.17R  
SPARTANBURG MOSUNNY 81 68 65 SE3 30.17R  
CLEMSON MOSUNNY 83 67 58 VRB7 30.17R  
GREENVILLE MOSUNNY 85 68 56 SW8 30.19R  
GREENWOOD MOSUNNY 84 68 58 S8 30.20R  
GREER MOSUNNY 84 66 54 SW8 30.18R  
ROCK HILL MOSUNNY 83 69 62 SW6 30.18R  
CHESTER PTSUNNY 82 68 61 SW3 30.19R  
LAURENS MOSUNNY 82 68 61 SW8 30.18R  
 
   
..CENTRAL SOUTH CAROLINA
 
 
 
CITY SKY/WX TMP DP RH WIND PRES REMARKS
 
COLUMBIA APT PTSUNNY 84 71 65 SW7 30.17R  
COLUMBIA OWENS PTSUNNY 84 70 62 VRB5 30.18R  
MCENTIRE ANGB CLOUDY 83 71 66 SW7 30.17R  
ORANGEBURG PTSUNNY 84 72 67 S5 30.19R  
SUMTER SHAW PTSUNNY 83 71 66 W5 30.18R  
NEWBERRY MOSUNNY 82 68 61 NW7 30.21R  
AIKEN PTSUNNY 83 69 62 S7 30.20S  
BARNWELL PTSUNNY 86 70 58 SW7 30.19R  
CAMDEN PTSUNNY 82 70 65 S5 30.19R  
LANCASTER PTSUNNY 82 70 65 VRB6 30.18R  
WINNSBORO PTSUNNY 81 70 69 W6 30.19R  
 
   
..EASTERN AND COASTAL SOUTH CAROLINA
 
 
 
CITY SKY/WX TMP DP RH WIND PRES REMARKS
 
MYRTLE BEACH CLOUDY 80 74 81 S15 30.21R  
N MYRTLE BCH CLOUDY 80 74 81 SW12 30.19R  
CONWAY FAIR 82 70 65 SW7 30.20R  
MARION FAIR 81 72 74 S8 30.19R  
HARTSVILLE FAIR 79 70 73 SW5 30.19R  
FLORENCE MOSUNNY 86 71 60 SW9 30.18R  
DARLINGTON PTSUNNY 82 71 69 SW10 30.19R  
CHARLESTON APT PTSUNNY 84 67 56 SW13 30.21R  
MOUNT PLEASANT FAIR 81 77 89 S13G18 30.21R  
WALTERBORO MOSUNNY 82 68 61 S7 30.21R  
BEAUFORT MOSUNNY 88 68 51 SW13G22 30.20S  
HILTON HEAD MOSUNNY 84 72 65 S9G18 30.22R  
 
   
..EASTERN GEORGIA
 
 
 
CITY SKY/WX TMP DP RH WIND PRES REMARKS
 
AUGUSTA BUSH F PTSUNNY 86 69 56 VRB6 30.17R  
AUGUSTA DANIEL MOSUNNY 87 67 51 VRB5 30.19R  
THOMSON PTSUNNY 84 69 58 SW5 30.19R  
WASHINGTON PTSUNNY 82 69 64 W7 30.20R  
CLAXTON FAIR 84 71 65 W3 30.21R  
SYLVANIA PTSUNNY 84 72 65 SW5 30.21R  
STATESBORO CLOUDY 84 69 59 SW5 30.21R  
SAVANNAH PTSUNNY 85 67 54 W8 30.20S  
 
   
..SOUTHERN NORTH CAROLINA
 
 
 
CITY SKY/WX TMP DP RH WIND PRES REMARKS
 
CHARLOTTE MOSUNNY 85 68 56 VRB5 30.16S  
MONROE PTSUNNY 83 68 60 SW6 30.16R  
WADESBORO CLOUDY 82 69 63 CALM 30.16S  
ROCKINGHAM CLOUDY 82 71 69 SW7 30.17R  
RUTHERFORDTON MOSUNNY 84 64 51 SW3 30.17S  
ASHEVILLE MOSUNNY 81 63 54 CALM 30.20S  
 

 
 
 
CLICK HERE TO GO TO PREVIOUS BULLETINS.

The Nexlab SC Page
The Nexlab GA Page Main Text Page